Torna al catalogo

STARLINK-5356

AttivoComunicazioniVLEO
NORAD 56418·PAYLOAD·🇺🇸 United States

Lanciato May 4, 2023 da Cape Canaveral Space Force Station

Loading…

Prossimi Passaggi (prossime 24 ore)

TLE

AggiornatoSource: CelesTrak SupGP

Epoca: Sep 15, 2026, 02:37 UTC

1 56418C 23061AW  26258.10951389 -.00015170  00000+0 -54956-3 0  2580
2 56418  43.0032 189.6586 0001206 271.7186 344.9162 15.27581234    10

Traccia STARLINK-5356 in tempo reale con AllMySat

Download on the App Store